Time,TemperatureF,DewpointF,PressureIn,WindDirection,WindDirectionDegrees,WindSpeedMPH,WindSpeedGustMPH,Humidity,HourlyPrecipIn,Conditions,Clouds,dailyrainin,SoftwareType,DateUTC
2015-04-18 00:04:00,59.5,41.0,29.92,NNW,343,0.0,0.0,50,0.00,,---,0.00,cosweather0.1e,2015-04-18 07:04:00,
2015-04-18 00:09:00,59.5,41.0,29.92,NNW,343,0.0,0.0,50,0.00,,---,0.00,cosweather0.1e,2015-04-18 07:09:00,
2015-04-18 00:14:00,59.4,41.0,29.92,NNW,343,0.0,0.0,50,0.00,,---,0.00,cosweather0.1e,2015-04-18 07:14:00,
2015-04-18 00:20:00,59.2,41.0,29.92,NNE,21,0.0,0.0,51,0.00,,---,0.00,cosweather0.1e,2015-04-18 07:20:00,
2015-04-18 00:25:00,58.6,41.0,29.92,NNE,25,0.0,0.0,52,0.00,,---,0.00,cosweather0.1e,2015-04-18 07:25:00,
2015-04-18 00:30:00,57.9,41.0,29.92,NNE,30,0.0,0.0,54,0.00,,---,0.00,cosweather0.1e,2015-04-18 07:30:00,
2015-04-18 00:35:00,57.6,41.0,29.92,NNE,24,0.0,0.0,55,0.00,,---,0.00,cosweather0.1e,2015-04-18 07:35:00,
2015-04-18 00:40:00,57.6,41.0,29.92,NNE,24,0.0,0.0,55,0.00,,---,0.00,cosweather0.1e,2015-04-18 07:40:00,
2015-04-18 00:45:00,57.9,41.0,29.92,NNE,24,0.0,0.0,55,0.00,,---,0.00,cosweather0.1e,2015-04-18 07:45:00,
2015-04-18 00:50:00,58.1,42.8,29.92,NNE,24,0.0,0.0,55,0.00,,---,0.00,cosweather0.1e,2015-04-18 07:50:00,
2015-04-18 00:55:00,58.1,42.8,29.92,East,79,0.0,0.0,54,0.00,,---,0.00,cosweather0.1e,2015-04-18 07:55:00,
2015-04-18 01:00:00,58.1,42.8,29.88,East,85,0.0,0.0,54,0.00,,---,0.00,cosweather0.1e,2015-04-18 08:00:00,
2015-04-18 01:05:00,58.1,42.8,29.88,East,85,0.0,0.0,54,0.00,,---,0.00,cosweather0.1e,2015-04-18 08:05:00,
2015-04-18 01:10:00,58.1,42.8,29.88,East,85,0.0,0.0,54,0.00,,---,0.00,cosweather0.1e,2015-04-18 08:10:00,
2015-04-18 01:15:00,58.1,42.8,29.88,East,86,0.0,0.0,54,0.00,,---,0.00,cosweather0.1e,2015-04-18 08:15:00,
2015-04-18 01:20:00,57.9,41.0,29.88,East,85,0.0,0.0,54,0.00,,---,0.00,cosweather0.1e,2015-04-18 08:20:00,
2015-04-18 01:25:00,57.7,41.0,29.88,East,86,0.0,0.0,54,0.00,,---,0.00,cosweather0.1e,2015-04-18 08:25:00,
2015-04-18 01:30:00,57.7,41.0,29.88,East,85,0.0,0.0,54,0.00,,---,0.00,cosweather0.1e,2015-04-18 08:30:00,
2015-04-18 01:35:00,57.7,41.0,29.88,East,85,0.0,0.0,55,0.00,,---,0.00,cosweather0.1e,2015-04-18 08:35:00,
2015-04-18 01:40:00,57.6,41.0,29.88,East,85,0.0,0.0,55,0.00,,---,0.00,cosweather0.1e,2015-04-18 08:40:00,
2015-04-18 01:45:00,57.6,41.0,29.88,East,85,0.0,0.0,55,0.00,,---,0.00,cosweather0.1e,2015-04-18 08:45:00,
2015-04-18 01:50:00,57.6,41.0,29.88,East,85,0.0,0.0,55,0.00,,---,0.00,cosweather0.1e,2015-04-18 08:50:00,
2015-04-18 01:55:00,57.4,41.0,29.88,East,86,0.0,0.0,55,0.00,,---,0.00,cosweather0.1e,2015-04-18 08:55:00,
2015-04-18 02:00:00,57.4,41.0,29.88,East,86,0.0,0.0,55,0.00,,---,0.00,cosweather0.1e,2015-04-18 09:00:00,
2015-04-18 02:05:00,57.2,41.0,29.88,East,85,0.0,0.0,55,0.00,,---,0.00,cosweather0.1e,2015-04-18 09:05:00,
2015-04-18 02:10:00,57.2,41.0,29.88,East,85,0.0,0.0,56,0.00,,---,0.00,cosweather0.1e,2015-04-18 09:10:00,
2015-04-18 02:15:00,57.2,41.0,29.88,East,85,0.0,0.0,56,0.00,,---,0.00,cosweather0.1e,2015-04-18 09:15:00,
2015-04-18 02:20:00,57.0,41.0,29.88,East,86,0.0,0.0,56,0.00,,---,0.00,cosweather0.1e,2015-04-18 09:20:00,
2015-04-18 02:25:00,56.8,42.8,29.88,ENE,73,0.0,0.0,57,0.00,,---,0.00,cosweather0.1e,2015-04-18 09:25:00,
2015-04-18 02:31:00,56.7,42.8,29.88,ENE,71,0.0,0.0,57,0.00,,---,0.00,cosweather0.1e,2015-04-18 09:31:00,
2015-04-18 02:36:00,56.5,42.8,29.88,ENE,71,0.0,0.0,57,0.00,,---,0.00,cosweather0.1e,2015-04-18 09:36:00,
2015-04-18 02:41:00,56.3,42.8,29.88,ENE,71,0.0,0.0,57,0.00,,---,0.00,cosweather0.1e,2015-04-18 09:41:00,
2015-04-18 02:46:00,56.3,42.8,29.88,ENE,71,0.0,0.0,57,0.00,,---,0.00,cosweather0.1e,2015-04-18 09:46:00,
2015-04-18 02:51:00,56.3,42.8,29.88,ENE,71,0.0,0.0,57,0.00,,---,0.00,cosweather0.1e,2015-04-18 09:51:00,
2015-04-18 02:56:00,56.3,42.8,29.88,ENE,71,0.0,0.0,57,0.00,,---,0.00,cosweather0.1e,2015-04-18 09:56:00,
2015-04-18 03:01:00,56.3,42.8,29.88,ENE,71,0.0,0.0,57,0.00,,---,0.00,cosweather0.1e,2015-04-18 10:01:00,
2015-04-18 03:06:00,56.3,42.8,29.88,ENE,71,0.0,0.0,57,0.00,,---,0.00,cosweather0.1e,2015-04-18 10:06:00,
2015-04-18 03:11:00,56.3,42.8,29.88,ENE,71,0.0,0.0,57,0.00,,---,0.00,cosweather0.1e,2015-04-18 10:11:00,
2015-04-18 03:16:00,56.1,41.0,29.88,NW,321,0.0,0.0,58,0.00,,---,0.00,cosweather0.1e,2015-04-18 10:16:00,
2015-04-18 03:21:00,55.9,41.0,29.88,NW,321,0.0,0.0,58,0.00,,---,0.00,cosweather0.1e,2015-04-18 10:21:00,
2015-04-18 03:26:00,55.9,41.0,29.88,NW,321,0.0,0.0,58,0.00,,---,0.00,cosweather0.1e,2015-04-18 10:26:00,
2015-04-18 03:31:00,55.9,41.0,29.88,NW,321,0.0,0.0,58,0.00,,---,0.00,cosweather0.1e,2015-04-18 10:31:00,
2015-04-18 03:36:00,55.8,41.0,29.88,NW,321,0.0,0.0,58,0.00,,---,0.00,cosweather0.1e,2015-04-18 10:36:00,
2015-04-18 03:41:00,55.8,41.0,29.88,NW,321,0.0,0.0,58,0.00,,---,0.00,cosweather0.1e,2015-04-18 10:41:00,
2015-04-18 03:46:00,55.6,41.0,29.88,NNW,330,0.0,0.0,58,0.00,,---,0.00,cosweather0.1e,2015-04-18 10:46:00,
2015-04-18 03:51:00,55.6,41.0,29.88,NNW,330,0.0,0.0,58,0.00,,---,0.00,cosweather0.1e,2015-04-18 10:51:00,
2015-04-18 03:56:00,55.4,41.0,29.88,NNW,330,0.0,0.0,58,0.00,,---,0.00,cosweather0.1e,2015-04-18 10:56:00,
2015-04-18 04:01:00,55.4,41.0,29.88,NNW,330,0.0,0.0,58,0.00,,---,0.00,cosweather0.1e,2015-04-18 11:01:00,
2015-04-18 04:06:00,55.4,41.0,29.88,NNW,330,0.0,0.0,58,0.00,,---,0.00,cosweather0.1e,2015-04-18 11:06:00,
2015-04-18 04:11:00,55.4,41.0,29.88,NNW,330,0.0,0.0,58,0.00,,---,0.00,cosweather0.1e,2015-04-18 11:11:00,
2015-04-18 04:16:00,55.2,41.0,29.88,NNW,330,0.0,0.0,59,0.00,,---,0.00,cosweather0.1e,2015-04-18 11:16:00,
2015-04-18 04:21:00,55.2,41.0,29.88,NNW,330,0.0,0.0,59,0.00,,---,0.00,cosweather0.1e,2015-04-18 11:21:00,
2015-04-18 04:26:00,55.0,41.0,29.88,NNW,330,0.0,0.0,59,0.00,,---,0.00,cosweather0.1e,2015-04-18 11:26:00,
2015-04-18 04:31:00,55.0,41.0,29.88,NNW,330,0.0,0.0,59,0.00,,---,0.00,cosweather0.1e,2015-04-18 11:31:00,
2015-04-18 04:36:00,54.9,41.0,29.88,NNW,330,0.0,0.0,59,0.00,,---,0.00,cosweather0.1e,2015-04-18 11:36:00,
2015-04-18 04:41:00,54.7,41.0,29.88,NNW,330,0.0,0.0,59,0.00,,---,0.00,cosweather0.1e,2015-04-18 11:41:00,
2015-04-18 04:46:00,54.7,41.0,29.88,NNW,330,0.0,0.0,60,0.00,,---,0.00,cosweather0.1e,2015-04-18 11:46:00,
2015-04-18 04:51:00,54.5,41.0,29.88,NNW,330,0.0,0.0,60,0.00,,---,0.00,cosweather0.1e,2015-04-18 11:51:00,
2015-04-18 05:01:00,54.5,41.0,29.88,NNW,330,0.0,0.0,60,0.00,,---,0.00,cosweather0.1e,2015-04-18 12:01:00,
2015-04-18 05:07:00,54.3,41.0,29.88,NNW,330,0.0,0.0,61,0.00,,---,0.00,cosweather0.1e,2015-04-18 12:07:00,
2015-04-18 05:12:00,54.3,41.0,29.88,NNW,330,0.0,0.0,61,0.00,,---,0.00,cosweather0.1e,2015-04-18 12:12:00,
2015-04-18 05:17:00,54.3,41.0,29.84,NNW,330,0.0,0.0,61,0.00,,---,0.00,cosweather0.1e,2015-04-18 12:17:00,
2015-04-18 05:22:00,54.3,41.0,29.84,NNW,330,0.0,0.0,61,0.00,,---,0.00,cosweather0.1e,2015-04-18 12:22:00,
2015-04-18 05:27:00,54.3,41.0,29.84,NNW,330,0.0,0.0,61,0.00,,---,0.00,cosweather0.1e,2015-04-18 12:27:00,
2015-04-18 05:32:00,54.3,41.0,29.88,NNW,330,0.0,0.0,62,0.00,,---,0.00,cosweather0.1e,2015-04-18 12:32:00,
2015-04-18 05:37:00,54.1,41.0,29.88,NNW,330,0.0,0.0,62,0.00,,---,0.00,cosweather0.1e,2015-04-18 12:37:00,
2015-04-18 05:42:00,54.1,41.0,29.88,NNW,330,0.0,0.0,62,0.00,,---,0.00,cosweather0.1e,2015-04-18 12:42:00,
2015-04-18 05:47:00,54.0,41.0,29.88,NNW,330,0.0,0.0,62,0.00,,---,0.00,cosweather0.1e,2015-04-18 12:47:00,
2015-04-18 05:52:00,54.0,41.0,29.88,NNW,330,0.0,0.0,62,0.00,,---,0.00,cosweather0.1e,2015-04-18 12:52:00,
2015-04-18 05:57:00,54.0,41.0,29.88,NNW,330,0.0,0.0,62,0.00,,---,0.00,cosweather0.1e,2015-04-18 12:57:00,
2015-04-18 06:02:00,54.0,41.0,29.88,NNW,330,0.0,0.0,62,0.00,,---,0.00,cosweather0.1e,2015-04-18 13:02:00,
2015-04-18 06:07:00,53.8,41.0,29.88,NNW,330,0.0,0.0,62,0.00,,---,0.00,cosweather0.1e,2015-04-18 13:07:00,
2015-04-18 06:12:00,54.0,41.0,29.88,NNW,330,0.0,0.0,63,0.00,,---,0.00,cosweather0.1e,2015-04-18 13:12:00,
2015-04-18 06:17:00,53.8,41.0,29.88,NNW,330,0.0,0.0,63,0.00,,---,0.00,cosweather0.1e,2015-04-18 13:17:00,
2015-04-18 06:22:00,53.8,41.0,29.88,NNW,330,0.0,0.0,63,0.00,,---,0.00,cosweather0.1e,2015-04-18 13:22:00,
2015-04-18 06:27:00,53.8,41.0,29.88,NNW,330,0.0,0.0,63,0.00,,---,0.00,cosweather0.1e,2015-04-18 13:27:00,
2015-04-18 06:32:00,53.8,41.0,29.88,NNW,330,0.0,0.0,63,0.00,,---,0.00,cosweather0.1e,2015-04-18 13:32:00,
2015-04-18 06:37:00,53.8,41.0,29.88,East,97,0.0,0.0,63,0.00,,---,0.00,cosweather0.1e,2015-04-18 13:37:00,
2015-04-18 06:42:00,53.6,41.0,29.88,East,97,0.0,0.0,63,0.00,,---,0.00,cosweather0.1e,2015-04-18 13:42:00,
2015-04-18 06:47:00,53.4,41.0,29.88,East,97,0.0,0.0,64,0.00,,---,0.00,cosweather0.1e,2015-04-18 13:47:00,
2015-04-18 06:52:00,53.6,41.0,29.88,East,97,0.0,0.0,64,0.00,,---,0.00,cosweather0.1e,2015-04-18 13:52:00,
2015-04-18 06:57:00,53.6,41.0,29.88,East,97,0.0,0.0,64,0.00,,---,0.00,cosweather0.1e,2015-04-18 13:57:00,
2015-04-18 07:02:00,53.6,42.8,29.88,East,96,0.0,0.0,65,0.00,,---,0.00,cosweather0.1e,2015-04-18 14:02:00,
2015-04-18 07:07:00,53.6,42.8,29.88,East,97,0.0,0.0,65,0.00,,---,0.00,cosweather0.1e,2015-04-18 14:07:00,
2015-04-18 07:12:00,53.6,42.8,29.88,East,97,0.0,0.0,65,0.00,,---,0.00,cosweather0.1e,2015-04-18 14:12:00,
2015-04-18 07:17:00,53.4,42.8,29.88,East,97,0.0,0.0,66,0.00,,---,0.00,cosweather0.1e,2015-04-18 14:17:00,
2015-04-18 07:22:00,53.4,42.8,29.88,East,97,0.0,0.0,66,0.00,,---,0.00,cosweather0.1e,2015-04-18 14:22:00,
2015-04-18 07:27:00,53.6,42.8,29.88,East,97,0.0,0.0,66,0.00,,---,0.00,cosweather0.1e,2015-04-18 14:27:00,
2015-04-18 07:32:00,53.6,42.8,29.88,East,97,0.0,0.0,66,0.00,,---,0.00,cosweather0.1e,2015-04-18 14:32:00,
2015-04-18 07:37:00,53.8,42.8,29.88,East,97,0.0,0.0,66,0.00,,---,0.00,cosweather0.1e,2015-04-18 14:37:00,
2015-04-18 07:42:00,53.6,42.8,29.88,East,97,0.0,0.0,66,0.00,,---,0.00,cosweather0.1e,2015-04-18 14:42:00,
2015-04-18 07:47:00,53.6,42.8,29.88,East,97,0.0,0.0,67,0.00,,---,0.00,cosweather0.1e,2015-04-18 14:47:00,
2015-04-18 07:52:00,53.6,42.8,29.88,SSE,166,0.0,0.0,67,0.00,,---,0.00,cosweather0.1e,2015-04-18 14:52:00,
2015-04-18 07:57:00,53.6,42.8,29.88,SSE,166,0.0,0.0,68,0.00,,---,0.00,cosweather0.1e,2015-04-18 14:57:00,
2015-04-18 08:02:00,53.6,44.6,29.88,SSE,166,0.0,0.0,69,0.00,,---,0.00,cosweather0.1e,2015-04-18 15:02:00,
2015-04-18 08:08:00,53.8,44.6,29.88,SSE,166,0.0,0.0,70,0.00,,---,0.00,cosweather0.1e,2015-04-18 15:08:00,
2015-04-18 08:13:00,54.0,44.6,29.88,South,186,0.0,0.0,71,0.00,,---,0.00,cosweather0.1e,2015-04-18 15:13:00,
2015-04-18 08:17:00,54.1,44.6,29.88,South,189,0.0,0.0,72,0.00,,---,0.00,cosweather0.1e,2015-04-18 15:17:00,
2015-04-18 08:23:00,54.1,44.6,29.88,NW,312,0.0,0.0,72,0.00,,---,0.00,cosweather0.1e,2015-04-18 15:23:00,
2015-04-18 08:28:00,54.3,44.6,29.88,South,184,0.0,0.0,73,0.00,,---,0.00,cosweather0.1e,2015-04-18 15:28:00,
2015-04-18 08:33:00,54.5,46.4,29.88,SW,215,0.0,0.0,73,0.00,,---,0.00,cosweather0.1e,2015-04-18 15:33:00,
2015-04-18 08:38:00,54.7,48.2,29.88,SSW,213,0.0,0.0,74,0.00,,---,0.00,cosweather0.1e,2015-04-18 15:38:00,
2015-04-18 08:43:00,54.9,48.2,29.88,NE,52,0.0,0.0,74,0.00,,---,0.00,cosweather0.1e,2015-04-18 15:43:00,
2015-04-18 08:48:00,55.2,48.2,29.88,North,5,0.0,0.0,75,0.00,,---,0.00,cosweather0.1e,2015-04-18 15:48:00,
2015-04-18 08:53:00,55.6,48.2,29.88,WNW,290,0.0,0.0,74,0.00,,---,0.00,cosweather0.1e,2015-04-18 15:53:00,
2015-04-18 08:58:00,55.8,48.2,29.88,NNW,333,0.0,2.2,75,0.00,,---,0.00,cosweather0.1e,2015-04-18 15:58:00,
2015-04-18 09:03:00,55.9,48.2,29.88,NNW,341,0.0,0.0,74,0.00,,---,0.00,cosweather0.1e,2015-04-18 16:03:00,
2015-04-18 09:08:00,56.3,50.0,29.88,NE,41,0.0,0.0,75,0.00,,---,0.00,cosweather0.1e,2015-04-18 16:08:00,
2015-04-18 09:13:00,56.7,48.2,29.88,NW,318,0.0,2.2,74,0.00,,---,0.00,cosweather0.1e,2015-04-18 16:13:00,
2015-04-18 09:18:00,56.8,48.2,29.88,SW,215,0.0,2.7,74,0.00,,---,0.00,cosweather0.1e,2015-04-18 16:18:00,
2015-04-18 09:23:00,56.8,48.2,29.88,NW,319,0.0,0.0,74,0.00,,---,0.00,cosweather0.1e,2015-04-18 16:23:00,
2015-04-18 09:28:00,57.0,48.2,29.88,NNW,330,0.0,2.2,74,0.00,,---,0.00,cosweather0.1e,2015-04-18 16:28:00,
2015-04-18 09:33:00,57.2,48.2,29.88,NNW,344,0.0,2.7,73,0.00,,---,0.00,cosweather0.1e,2015-04-18 16:33:00,
2015-04-18 09:38:00,57.4,48.2,29.88,West,266,0.0,0.0,73,0.00,,---,0.00,cosweather0.1e,2015-04-18 16:38:00,
2015-04-18 09:43:00,57.6,48.2,29.88,NW,310,0.0,0.0,73,0.00,,---,0.00,cosweather0.1e,2015-04-18 16:43:00,
2015-04-18 09:48:00,57.6,48.2,29.88,NW,309,0.0,2.7,72,0.00,,---,0.00,cosweather0.1e,2015-04-18 16:48:00,
2015-04-18 09:53:00,57.9,48.2,29.88,NW,306,0.0,0.0,72,0.00,,---,0.00,cosweather0.1e,2015-04-18 16:53:00,
2015-04-18 09:58:00,57.9,48.2,29.88,West,280,0.0,0.0,72,0.00,,---,0.00,cosweather0.1e,2015-04-18 16:58:00,
2015-04-18 10:03:00,58.1,50.0,29.88,NW,311,0.0,2.7,72,0.00,,---,0.00,cosweather0.1e,2015-04-18 17:03:00,
2015-04-18 10:08:00,58.6,50.0,29.88,WNW,300,0.0,0.0,71,0.00,,---,0.00,cosweather0.1e,2015-04-18 17:08:00,
2015-04-18 10:13:00,58.8,50.0,29.88,NNW,334,0.0,2.7,70,0.00,,---,0.00,cosweather0.1e,2015-04-18 17:13:00,
2015-04-18 10:18:00,59.2,50.0,29.88,NW,326,0.0,2.7,70,0.00,,---,0.00,cosweather0.1e,2015-04-18 17:18:00,
2015-04-18 10:23:00,59.5,48.2,29.88,WNW,286,0.0,0.0,69,0.00,,---,0.00,cosweather0.1e,2015-04-18 17:23:00,
2015-04-18 10:28:00,60.1,50.0,29.88,SSE,153,0.0,0.0,69,0.00,,---,0.00,cosweather0.1e,2015-04-18 17:28:00,
2015-04-18 10:33:00,60.4,50.0,29.88,WNW,282,0.0,2.7,69,0.00,,---,0.00,cosweather0.1e,2015-04-18 17:33:00,
2015-04-18 10:38:00,61.0,50.0,29.88,NNW,329,0.0,2.2,68,0.00,,---,0.00,cosweather0.1e,2015-04-18 17:38:00,
2015-04-18 10:43:00,61.2,48.2,29.88,NW,326,0.0,2.2,65,0.00,,---,0.00,cosweather0.1e,2015-04-18 17:43:00,
2015-04-18 10:48:00,61.5,48.2,29.88,NNW,343,0.0,2.2,64,0.00,,---,0.00,cosweather0.1e,2015-04-18 17:48:00,
2015-04-18 10:53:00,61.9,50.0,29.88,NW,316,0.0,2.2,64,0.00,,---,0.00,cosweather0.1e,2015-04-18 17:53:00,
2015-04-18 10:58:00,62.1,48.2,29.88,North,353,0.0,2.2,61,0.00,,---,0.00,cosweather0.1e,2015-04-18 17:58:00,
2015-04-18 11:03:00,62.6,48.2,29.88,South,187,0.0,0.0,61,0.00,,---,0.00,cosweather0.1e,2015-04-18 18:03:00,
2015-04-18 11:08:00,63.3,48.2,29.88,WNW,303,2.2,2.7,61,0.00,,---,0.00,cosweather0.1e,2015-04-18 18:08:00,
2015-04-18 11:13:00,63.7,50.0,29.88,NNW,342,0.0,0.0,61,0.00,,---,0.00,cosweather0.1e,2015-04-18 18:13:00,
2015-04-18 11:18:00,64.0,50.0,29.88,North,353,2.7,2.7,58,0.00,,---,0.00,cosweather0.1e,2015-04-18 18:18:00,
2015-04-18 11:23:00,64.6,50.0,29.88,WNW,297,0.0,2.2,58,0.00,,---,0.00,cosweather0.1e,2015-04-18 18:23:00,
2015-04-18 11:28:00,65.1,50.0,29.88,NW,320,2.2,2.7,58,0.00,,---,0.00,cosweather0.1e,2015-04-18 18:28:00,
2015-04-18 11:33:00,65.7,50.0,29.88,NNW,333,3.1,3.1,57,0.00,,---,0.00,cosweather0.1e,2015-04-18 18:33:00,
2015-04-18 11:38:00,66.2,50.0,29.88,WNW,300,0.0,0.0,56,0.00,,---,0.00,cosweather0.1e,2015-04-18 18:38:00,
2015-04-18 11:43:00,66.7,50.0,29.84,NW,318,2.2,2.7,54,0.00,,---,0.00,cosweather0.1e,2015-04-18 18:43:00,
2015-04-18 11:48:00,67.5,50.0,29.84,WNW,294,0.0,0.0,54,0.00,,---,0.00,cosweather0.1e,2015-04-18 18:48:00,
2015-04-18 11:53:00,67.8,50.0,29.84,NW,305,2.7,2.7,54,0.00,,---,0.00,cosweather0.1e,2015-04-18 18:53:00,
2015-04-18 11:58:00,68.4,50.0,29.84,SW,232,0.0,0.0,53,0.00,,---,0.00,cosweather0.1e,2015-04-18 18:58:00,
2015-04-18 12:08:00,68.9,50.0,29.84,North,357,2.7,2.7,51,0.00,,---,0.00,cosweather0.1e,2015-04-18 19:08:00,
2015-04-18 12:13:00,69.4,50.0,29.84,WNW,296,2.2,3.6,51,0.00,,---,0.00,cosweather0.1e,2015-04-18 19:13:00,
2015-04-18 12:18:00,69.8,50.0,29.84,WSW,258,2.2,2.7,49,0.00,,---,0.00,cosweather0.1e,2015-04-18 19:18:00,
2015-04-18 12:23:00,70.5,50.0,29.84,West,275,2.2,0.0,49,0.00,,---,0.00,cosweather0.1e,2015-04-18 19:23:00,
2015-04-18 12:28:00,70.9,50.0,29.84,SSW,194,2.2,2.7,47,0.00,,---,0.00,cosweather0.1e,2015-04-18 19:28:00,
2015-04-18 12:33:00,71.1,50.0,29.84,SW,232,0.0,2.7,47,0.00,,---,0.00,cosweather0.1e,2015-04-18 19:33:00,
2015-04-18 12:38:00,71.8,50.0,29.84,NW,322,2.2,2.7,46,0.00,,---,0.00,cosweather0.1e,2015-04-18 19:38:00,
2015-04-18 12:43:00,72.1,48.2,29.80,WSW,256,0.0,2.2,44,0.00,,---,0.00,cosweather0.1e,2015-04-18 19:43:00,
2015-04-18 12:48:00,72.3,48.2,29.80,NNW,338,2.2,2.2,44,0.00,,---,0.00,cosweather0.1e,2015-04-18 19:48:00,
2015-04-18 12:53:00,72.7,50.0,29.80,NNW,340,2.2,0.0,43,0.00,,---,0.00,cosweather0.1e,2015-04-18 19:53:00,
2015-04-18 12:58:00,72.9,48.2,29.80,NNW,335,2.2,3.1,40,0.00,,---,0.00,cosweather0.1e,2015-04-18 19:58:00,
2015-04-18 13:04:00,73.0,48.2,29.80,WNW,303,2.2,2.7,41,0.00,,---,0.00,cosweather0.1e,2015-04-18 20:04:00,
2015-04-18 13:09:00,73.6,48.2,29.80,South,191,2.2,0.0,40,0.00,,---,0.00,cosweather0.1e,2015-04-18 20:09:00,
2015-04-18 13:14:00,73.6,46.4,29.80,WNW,292,0.0,0.0,38,0.00,,---,0.00,cosweather0.1e,2015-04-18 20:14:00,
2015-04-18 13:19:00,73.9,44.6,29.80,NW,311,3.1,3.1,36,0.00,,---,0.00,cosweather0.1e,2015-04-18 20:19:00,
2015-04-18 13:24:00,73.9,44.6,29.80,North,0,2.7,2.7,35,0.00,,---,0.00,cosweather0.1e,2015-04-18 20:24:00,
2015-04-18 13:29:00,74.5,46.4,29.80,West,262,2.7,2.7,36,0.00,,---,0.00,cosweather0.1e,2015-04-18 20:29:00,
2015-04-18 13:34:00,75.0,46.4,29.80,SW,230,0.0,2.2,35,0.00,,---,0.00,cosweather0.1e,2015-04-18 20:34:00,
2015-04-18 13:39:00,75.6,46.4,29.80,West,281,2.2,3.1,36,0.00,,---,0.00,cosweather0.1e,2015-04-18 20:39:00,
2015-04-18 13:44:00,76.3,48.2,29.76,SSE,166,0.0,0.0,35,0.00,,---,0.00,cosweather0.1e,2015-04-18 20:44:00,
2015-04-18 13:49:00,76.3,44.6,29.76,North,353,2.2,3.1,32,0.00,,---,0.00,cosweather0.1e,2015-04-18 20:49:00,
2015-04-18 13:54:00,76.1,44.6,29.76,SSE,158,2.2,0.0,32,0.00,,---,0.00,cosweather0.1e,2015-04-18 20:54:00,
2015-04-18 13:59:00,76.5,44.6,29.76,North,7,2.2,2.2,31,0.00,,---,0.00,cosweather0.1e,2015-04-18 20:59:00,
2015-04-18 14:04:00,76.5,44.6,29.76,North,353,2.2,2.2,31,0.00,,---,0.00,cosweather0.1e,2015-04-18 21:04:00,
2015-04-18 14:09:00,76.8,44.6,29.76,WSW,237,2.7,0.0,32,0.00,,---,0.00,cosweather0.1e,2015-04-18 21:09:00,
2015-04-18 14:14:00,77.4,44.6,29.76,NNW,335,2.2,2.2,31,0.00,,---,0.00,cosweather0.1e,2015-04-18 21:14:00,
2015-04-18 14:19:00,77.7,44.6,29.76,WSW,240,0.0,0.0,31,0.00,,---,0.00,cosweather0.1e,2015-04-18 21:19:00,
2015-04-18 14:24:00,77.9,44.6,29.76,NNW,338,3.1,3.1,30,0.00,,---,0.00,cosweather0.1e,2015-04-18 21:24:00,
2015-04-18 14:29:00,77.5,42.8,29.76,WSW,257,2.2,2.7,30,0.00,,---,0.00,cosweather0.1e,2015-04-18 21:29:00,
2015-04-18 14:34:00,78.1,44.6,29.76,SSW,206,2.2,2.7,30,0.00,,---,0.00,cosweather0.1e,2015-04-18 21:34:00,
2015-04-18 14:39:00,78.6,44.6,29.76,SW,235,2.7,2.7,30,0.00,,---,0.00,cosweather0.1e,2015-04-18 21:39:00,
2015-04-18 14:44:00,79.0,44.6,29.76,WNW,297,2.2,3.1,30,0.00,,---,0.00,cosweather0.1e,2015-04-18 21:44:00,
2015-04-18 14:49:00,79.2,44.6,29.76,West,276,0.0,2.7,29,0.00,,---,0.00,cosweather0.1e,2015-04-18 21:49:00,
2015-04-18 14:54:00,79.2,44.6,29.76,SSE,156,2.2,0.0,29,0.00,,---,0.00,cosweather0.1e,2015-04-18 21:54:00,
2015-04-18 15:00:00,79.2,39.2,29.76,North,349,3.1,3.1,25,0.00,,---,0.00,cosweather0.1e,2015-04-18 22:00:00,
2015-04-18 15:05:00,78.6,39.2,29.76,NNW,334,2.7,3.6,25,0.00,,---,0.00,cosweather0.1e,2015-04-18 22:05:00,
2015-04-18 15:10:00,78.4,41.0,29.76,NNW,343,2.2,2.2,26,0.00,,---,0.00,cosweather0.1e,2015-04-18 22:10:00,
2015-04-18 15:15:00,78.6,41.0,29.72,NNW,339,2.7,4.9,26,0.00,,---,0.00,cosweather0.1e,2015-04-18 22:15:00,
2015-04-18 15:20:00,78.8,39.2,29.72,West,276,3.1,3.1,25,0.00,,---,0.00,cosweather0.1e,2015-04-18 22:20:00,
2015-04-18 15:25:00,78.6,39.2,29.72,NNW,348,3.1,3.1,24,0.00,,---,0.00,cosweather0.1e,2015-04-18 22:25:00,
2015-04-18 15:30:00,78.4,39.2,29.72,NNW,341,2.2,3.1,25,0.00,,---,0.00,cosweather0.1e,2015-04-18 22:30:00,
2015-04-18 15:35:00,78.4,41.0,29.72,West,260,3.1,3.1,26,0.00,,---,0.00,cosweather0.1e,2015-04-18 22:35:00,
2015-04-18 15:40:00,78.3,42.8,29.72,WNW,289,2.7,3.1,28,0.00,,---,0.00,cosweather0.1e,2015-04-18 22:40:00,
2015-04-18 15:45:00,78.4,44.6,29.72,NW,319,3.1,3.1,30,0.00,,---,0.00,cosweather0.1e,2015-04-18 22:45:00,
2015-04-18 15:50:00,78.4,46.4,29.72,WSW,258,3.1,3.1,31,0.00,,---,0.00,cosweather0.1e,2015-04-18 22:50:00,
2015-04-18 15:55:00,78.1,46.4,29.72,WNW,295,3.1,4.0,31,0.00,,---,0.00,cosweather0.1e,2015-04-18 22:55:00,
2015-04-18 16:01:00,77.7,44.6,29.72,WNW,303,2.7,4.9,31,0.00,,---,0.00,cosweather0.1e,2015-04-18 23:01:00,
2015-04-18 16:06:00,77.5,44.6,29.72,NW,323,3.6,3.6,31,0.00,,---,0.00,cosweather0.1e,2015-04-18 23:06:00,
2015-04-18 16:11:00,77.0,44.6,29.72,NNW,336,2.2,2.7,31,0.00,,---,0.00,cosweather0.1e,2015-04-18 23:11:00,
2015-04-18 16:16:00,76.6,44.6,29.72,NNW,329,3.1,3.1,32,0.00,,---,0.00,cosweather0.1e,2015-04-18 23:16:00,
2015-04-18 16:21:00,76.5,44.6,29.72,NW,308,2.7,5.4,31,0.00,,---,0.00,cosweather0.1e,2015-04-18 23:21:00,
2015-04-18 16:26:00,76.6,44.6,29.72,NW,312,2.2,3.1,32,0.00,,---,0.00,cosweather0.1e,2015-04-18 23:26:00,
2015-04-18 16:31:00,76.5,46.4,29.72,NW,306,2.7,2.7,33,0.00,,---,0.00,cosweather0.1e,2015-04-18 23:31:00,
2015-04-18 16:36:00,76.3,46.4,29.72,WNW,303,3.1,5.4,33,0.00,,---,0.00,cosweather0.1e,2015-04-18 23:36:00,
2015-04-18 16:41:00,76.1,46.4,29.72,NW,309,2.2,2.7,34,0.00,,---,0.00,cosweather0.1e,2015-04-18 23:41:00,
2015-04-18 16:46:00,75.7,44.6,29.72,NW,306,3.6,4.5,34,0.00,,---,0.00,cosweather0.1e,2015-04-18 23:46:00,
2015-04-18 16:51:00,75.6,44.6,29.72,NNW,333,3.6,3.6,34,0.00,,---,0.00,cosweather0.1e,2015-04-18 23:51:00,
2015-04-18 16:56:00,75.4,44.6,29.72,NNW,340,3.6,3.6,34,0.00,,---,0.00,cosweather0.1e,2015-04-18 23:56:00,
2015-04-18 17:01:00,74.8,44.6,29.72,WNW,284,2.2,0.0,34,0.00,,---,0.00,cosweather0.1e,2015-04-19 00:01:00,
2015-04-18 17:06:00,75.0,46.4,29.72,West,279,2.7,4.0,35,0.00,,---,0.00,cosweather0.1e,2015-04-19 00:06:00,
2015-04-18 17:11:00,75.2,44.6,29.72,WNW,302,3.6,3.6,33,0.00,,---,0.00,cosweather0.1e,2015-04-19 00:11:00,
2015-04-18 17:16:00,75.2,42.8,29.72,NNW,348,2.2,2.2,32,0.00,,---,0.00,cosweather0.1e,2015-04-19 00:16:00,
2015-04-18 17:21:00,75.0,42.8,29.72,WNW,293,2.7,3.6,32,0.00,,---,0.00,cosweather0.1e,2015-04-19 00:21:00,
2015-04-18 17:27:00,74.8,42.8,29.72,WNW,286,2.7,3.1,32,0.00,,---,0.00,cosweather0.1e,2015-04-19 00:27:00,
2015-04-18 17:32:00,74.7,42.8,29.72,WNW,294,3.1,3.1,31,0.00,,---,0.00,cosweather0.1e,2015-04-19 00:32:00,
2015-04-18 17:37:00,74.8,42.8,29.72,NNW,341,2.7,4.0,31,0.00,,---,0.00,cosweather0.1e,2015-04-19 00:37:00,
2015-04-18 17:42:00,74.5,41.0,29.72,NW,324,3.6,3.6,29,0.00,,---,0.00,cosweather0.1e,2015-04-19 00:42:00,
2015-04-18 17:47:00,74.3,41.0,29.72,North,350,2.2,2.7,29,0.00,,---,0.00,cosweather0.1e,2015-04-19 00:47:00,
2015-04-18 17:52:00,74.1,41.0,29.72,WNW,297,2.7,3.1,31,0.00,,---,0.00,cosweather0.1e,2015-04-19 00:52:00,
2015-04-18 17:57:00,74.3,42.8,29.72,NNW,331,0.0,0.0,31,0.00,,---,0.00,cosweather0.1e,2015-04-19 00:57:00,
2015-04-18 18:02:00,74.3,42.8,29.68,NW,308,2.2,3.1,31,0.00,,---,0.00,cosweather0.1e,2015-04-19 01:02:00,
2015-04-18 18:07:00,74.1,41.0,29.68,NW,312,0.0,3.6,31,0.00,,---,0.00,cosweather0.1e,2015-04-19 01:07:00,
2015-04-18 18:12:00,73.9,41.0,29.68,NNW,340,2.2,2.2,32,0.00,,---,0.00,cosweather0.1e,2015-04-19 01:12:00,
2015-04-18 18:17:00,73.9,41.0,29.68,NW,304,2.7,3.1,32,0.00,,---,0.00,cosweather0.1e,2015-04-19 01:17:00,
2015-04-18 18:22:00,73.6,41.0,29.68,WNW,298,2.7,2.7,32,0.00,,---,0.00,cosweather0.1e,2015-04-19 01:22:00,
2015-04-18 18:27:00,73.2,42.8,29.68,WNW,282,2.7,2.7,33,0.00,,---,0.00,cosweather0.1e,2015-04-19 01:27:00,
2015-04-18 18:32:00,73.0,42.8,29.68,West,272,2.7,4.0,33,0.00,,---,0.00,cosweather0.1e,2015-04-19 01:32:00,
2015-04-18 18:37:00,72.9,42.8,29.68,NW,312,0.0,0.0,33,0.00,,---,0.00,cosweather0.1e,2015-04-19 01:37:00,
2015-04-18 18:42:00,72.7,42.8,29.68,NW,320,2.2,2.2,33,0.00,,---,0.00,cosweather0.1e,2015-04-19 01:42:00,
2015-04-18 18:48:00,72.3,42.8,29.68,NW,307,0.0,0.0,34,0.00,,---,0.00,cosweather0.1e,2015-04-19 01:48:00,
2015-04-18 18:53:00,72.1,42.8,29.68,NNW,329,2.2,3.6,36,0.00,,---,0.00,cosweather0.1e,2015-04-19 01:53:00,
2015-04-18 18:58:00,71.8,42.8,29.68,NW,319,0.0,3.1,35,0.00,,---,0.00,cosweather0.1e,2015-04-19 01:58:00,
2015-04-18 19:03:00,71.8,42.8,29.68,NW,307,2.2,2.7,36,0.00,,---,0.00,cosweather0.1e,2015-04-19 02:03:00,
2015-04-18 19:08:00,71.6,44.6,29.68,NNW,334,0.0,0.0,37,0.00,,---,0.00,cosweather0.1e,2015-04-19 02:08:00,
2015-04-18 19:13:00,71.4,44.6,29.68,WNW,293,0.0,0.0,39,0.00,,---,0.00,cosweather0.1e,2015-04-19 02:13:00,
2015-04-18 19:18:00,71.1,44.6,29.68,NW,309,2.2,2.2,39,0.00,,---,0.00,cosweather0.1e,2015-04-19 02:18:00,
2015-04-18 19:23:00,71.1,44.6,29.68,NW,317,0.0,2.7,39,0.00,,---,0.00,cosweather0.1e,2015-04-19 02:23:00,
2015-04-18 19:28:00,70.7,46.4,29.68,NW,318,0.0,3.1,41,0.00,,---,0.00,cosweather0.1e,2015-04-19 02:28:00,
2015-04-18 19:33:00,70.0,46.4,29.68,NNW,345,0.0,0.0,42,0.00,,---,0.00,cosweather0.1e,2015-04-19 02:33:00,
2015-04-18 19:38:00,69.8,46.4,29.68,NW,316,0.0,2.2,42,0.00,,---,0.00,cosweather0.1e,2015-04-19 02:38:00,
2015-04-18 19:43:00,69.6,46.4,29.68,NNW,338,0.0,2.2,43,0.00,,---,0.00,cosweather0.1e,2015-04-19 02:43:00,
2015-04-18 19:48:00,69.4,46.4,29.68,NW,319,0.0,3.1,43,0.00,,---,0.00,cosweather0.1e,2015-04-19 02:48:00,
2015-04-18 19:53:00,69.3,46.4,29.68,NW,321,2.2,2.7,44,0.00,,---,0.00,cosweather0.1e,2015-04-19 02:53:00,
2015-04-18 19:58:00,68.9,46.4,29.72,NNW,341,0.0,2.2,44,0.00,,---,0.00,cosweather0.1e,2015-04-19 02:58:00,
2015-04-18 20:03:00,68.5,44.6,29.72,NNW,336,0.0,2.7,44,0.00,,---,0.00,cosweather0.1e,2015-04-19 03:03:00,
2015-04-18 20:08:00,68.5,44.6,29.72,NW,326,0.0,0.0,44,0.00,,---,0.00,cosweather0.1e,2015-04-19 03:08:00,
2015-04-18 20:14:00,68.4,44.6,29.72,NNW,330,2.2,2.2,44,0.00,,---,0.00,cosweather0.1e,2015-04-19 03:14:00,
2015-04-18 20:19:00,68.2,46.4,29.72,NW,312,2.2,2.7,45,0.00,,---,0.00,cosweather0.1e,2015-04-19 03:19:00,
2015-04-18 20:24:00,67.5,46.4,29.72,NNW,344,0.0,2.7,47,0.00,,---,0.00,cosweather0.1e,2015-04-19 03:24:00,
2015-04-18 20:29:00,66.9,46.4,29.72,NNW,329,2.2,2.7,48,0.00,,---,0.00,cosweather0.1e,2015-04-19 03:29:00,
2015-04-18 20:34:00,66.6,46.4,29.72,NW,319,2.2,0.0,49,0.00,,---,0.00,cosweather0.1e,2015-04-19 03:34:00,
2015-04-18 20:39:00,66.4,46.4,29.72,North,353,0.0,2.7,49,0.00,,---,0.00,cosweather0.1e,2015-04-19 03:39:00,
2015-04-18 20:44:00,65.5,48.2,29.72,NNW,327,0.0,3.1,51,0.00,,---,0.00,cosweather0.1e,2015-04-19 03:44:00,